Flag for Canada Weather past 2 weeks in Québec, Quebec, Canada

Now
64 °F

Passing clouds.


Feels Like: 64 °F
Forecast: 57 / 77 °F
Wind: 2 mph from North

Location: Quebec Weather Station

Current Time: Aug 23, 2014 at 12:08:32 AM

Latest Report: Aug 22, 2014 at 11:00 PM


Visibility: 15 mi

Pressure: 30.16 "Hg

Humidity: 83%

Dew point: 59 °F

Location of QuébecLocation

Historic Weather in Québec — Graph

°F

Québec temperature yesterday

Maximum temperature yesterday: 75 °F (at 4:00 PM)
Minimum temperature yesterday: 61 °F (at 5:00 AM)
Average temperature yesterday: 68 °F

Past Weeks' High & Low Weather Summary

 TemperatureHumidityPressure
High84 °F (Aug 11, 5:00 PM)100% (Aug 8, 11:00 PM)30.17 "Hg (Aug 8, 11:00 PM)
Low48 °F (Aug 15, 4:00 AM)48% (Aug 8, 1:00 PM)29.67 "Hg (Aug 14, 7:00 AM)
Average65 °F79%29.95 "Hg
* Reported Aug 7 10:00 PM — Aug 22 10:00 PM, Québec, Weather by CustomWeather, © 2014

Note: Actual official high and low records may vary slightly from our data, if they occured in-between our weather recording intervals... More about our weather records

Advertising

Québec weather history for previous 24 hours

 ConditionsComfort  
Time TempWeatherWind HumidityBarometerVisibility
10:00 PM
Aug 22
66 °FPassing clouds.8 mph78%30.16 "Hg15 mi
9:00 PM68 °FPassing clouds.7 mph73%30.16 "Hg15 mi
8:00 PM68 °FPassing clouds.10 mph73%30.16 "Hg25 mi
7:00 PM70 °FPassing clouds.9 mph69%30.15 "Hg30 mi
6:00 PM72 °FPassing clouds.13 mph65%30.14 "Hg30 mi
5:00 PM73 °FPassing clouds.12 mph65%30.13 "Hg30 mi
4:00 PM75 °FPartly sunny.10 mph65%30.13 "Hg30 mi
3:00 PM73 °FScattered clouds.9 mph65%30.14 "Hg30 mi
2:00 PM73 °FBroken clouds.14 mph65%30.15 "Hg25 mi
1:00 PM73 °FScattered clouds.14 mph65%30.14 "Hg25 mi
12:00 PM72 °FScattered clouds.14 mph69%30.16 "Hg25 mi
11:00 AM70 °FBroken clouds.14 mph69%30.16 "Hg25 mi
10:00 AM68 °FBroken clouds.15 mph69%30.17 "Hg30 mi
9:00 AM66 °FScattered clouds.21 mph73%30.17 "Hg25 mi
8:00 AM64 °FScattered clouds.20 mph73%30.16 "Hg25 mi
7:00 AM63 °FScattered clouds.8 mph83%30.15 "Hg25 mi
6:00 AM61 °FPassing clouds.8 mph88%30.14 "Hg25 mi
5:00 AM61 °FPassing clouds.6 mph88%30.12 "Hg15 mi
4:00 AM63 °FPassing clouds.9 mph83%30.12 "Hg15 mi
3:00 AM63 °FPassing clouds.10 mph83%30.12 "Hg15 mi
2:00 AM63 °FPassing clouds.12 mph88%30.12 "Hg15 mi
1:00 AM64 °FPassing clouds.12 mph83%30.12 "Hg15 mi
12:00 AM64 °FPassing clouds.12 mph78%30.12 "Hg15 mi
Weather by CustomWeather, © 2014

See weather overviewHow to use our weather pages